Flag for India Weather past 2 weeks in Pratapgarh, Uttar Pradesh, India

Now
99 °F

Clear.


Feels Like: 95 °F
Forecast: 79 / 105 °F
Wind: 7 mph from Northeast

Location: Varanasi / Babatpur

Current Time: May 3, 2015 at 7:26:23 PM

Latest Report: May 3, 2015 at 6:00 PM


Visibility: 4 mi

Pressure: 29.68 "Hg

Humidity: 18%

Dew point: 48 °F

Location of PratapgarhLocation

Historic Weather in Pratapgarh — Graph

°F

Pratapgarh temperature yesterday

Maximum temperature yesterday: 104 °F (at 3:00 PM)
Minimum temperature yesterday: 79 °F (at 5:00 AM)
Average temperature yesterday: 92 °F

Past Weeks' High & Low Weather Summary

 TemperatureHumidityPressure
High104 °F (Apr 19, 1:00 PM)94% (Apr 29, 12:00 AM)29.89 "Hg (Apr 29, 12:00 AM)
Low70 °F (Apr 28, 12:00 PM)16% (May 3, 1:00 PM)29.56 "Hg (Apr 18, 6:00 PM)
Average88 °F52%29.71 "Hg
* Reported Apr 18 6:00 PM — May 3 6:00 PM, Pratapgarh, Weather by CustomWeather, © 2015

Note: Actual official high and low records may vary slightly from our data, if they occured in-between our weather recording intervals... More about our weather records

Advertising

Pratapgarh weather history for previous 24 hours

 ConditionsComfort  
Time TempWeatherWind HumidityBarometerVisibility
6:00 PM
Sun, May 3
99 °FClear.7 mph18%29.68 "Hg4 mi
5:00 PM100 °FClear.7 mph20%29.68 "Hg4 mi
4:00 PM102 °FClear.6 mph17%29.68 "Hg4 mi
3:00 PM102 °FClear.8 mph17%29.71 "Hg4 mi
2:00 PM104 °FHaze.9 mph16%29.74 "Hg3 mi
1:00 PM104 °FHaze.7 mph16%29.74 "Hg3 mi
12:00 PM100 °FHaze.2 mph20%29.77 "Hg3 mi
11:00 AM99 °FHaze.3 mph27%29.80 "Hg3 mi
10:00 AM97 °FHaze.No wind32%29.80 "Hg2 mi
9:00 AM93 °FHaze.3 mph36%29.80 "Hg2 mi
8:00 AM86 °FHaze.No wind49%29.80 "Hg2 mi
7:00 AM81 °FHaze.No wind54%29.77 "Hg2 mi
5:00 AM79 °FHaze.No wind65%29.74 "Hg1 mi
4:00 AM81 °FHaze.No wind62%29.74 "Hg2 mi
12:00 AM86 °FHaze.5 mph38%29.71 "Hg2 mi
11:00 PM
Sat, May 2
88 °FHaze.5 mph38%29.71 "Hg2 mi
8:00 PM95 °FHaze.No wind41%29.68 "Hg2 mi
7:00 PM95 °FHaze.No wind41%29.65 "Hg2 mi
Weather by CustomWeather, © 2015

See weather overviewHow to use our weather pages